Regional Weather Roundup
Issued by NWS

Current Version | Previous Version | Text Only | Print | Product List | Glossary On
Versions: 1 2 3 4 5 6 7 8 9 10 11 12 13 14 15 16 17 18 19 20 21 22 23 24 25 26 27 28 29 30 31 32 33 34 35 36 37 38 39 40 41 42 43 44 45 46 47 48 49 50
000
ASUS44 KBMX 301310
RWRAL

ALABAMA REGIONAL WEATHER ROUNDUP
NATIONAL WEATHER SERVICE BIRMINGHAM AL
700 AM CST FRI JAN 30 2015

NOTE: "FAIR" INDICATES FEW OR NO CLOUDS BELOW 12,000 FEET
WITH NO SIGNIFICANT WEATHER AND/OR OBSTRUCTIONS TO VISIBILITY.

THE REMARK "TC" DENOTES TEMPERATURE IN DEGREES CELSIUS.

ALZ001>011-014-016>018-020-301400-
NORTH ALABAMA

CITY           SKY/WX    TMP DP  RH WIND       PRES   REMARKS
MUSCLE SHOALS  MOCLDY    39  26  59 N8        30.43R WCI  33
HUNTSVILLE     CLOUDY    40  27  59 N15G22    30.40R WCI  32
DECATUR        CLOUDY    38  27  64 N14       30.41R WCI  30
HALEYVILLE       N/A     37  28  70 N7        30.40R WCI  31
GADSDEN        CLOUDY    39  25  56 N10G16    30.37R WCI  32
$$

ALZ012-013-022-023-030>036-040>044-301400-
WEST CENTRAL ALABAMA

CITY           SKY/WX    TMP DP  RH WIND       PRES   REMARKS
TUSCALOOSA     PTCLDY    36  30  79 NW3       30.40R
$$

ALZ015-024>027-033>036-040>044-301400-
CENTRAL ALABAMA

CITY           SKY/WX    TMP DP  RH WIND       PRES   REMARKS
BIRMINGHAM     MOCLDY    40  27  59 N15       30.39R WCI  32
MONTGOMERY     PTCLDY    41  30  65 NW7       30.35R
SHELBY CO ARPT PTCLDY    41  28  60 N8        30.36R
MAXWELL AFB    PTCLDY    40  31  70 W5        30.35R
GREENVILLE     FAIR      41  31  67 N7        30.32R
$$

ALZ019-021-028-029-037-038-045>048-301400-
EAST CENTRAL ALABAMA

CITY           SKY/WX    TMP DP  RH WIND       PRES   REMARKS
ANNISTON       MOCLDY    40  26  57 N9        30.36R WCI  34
ALEXANDER CITY CLEAR     40  26  57 N9        30.33R WCI  34
AUBURN         CLEAR     37  25  60 N10       30.30R WCI  30
$$

ALZ051>064-301400-
SOUTHWEST ALABAMA

CITY           SKY/WX    TMP DP  RH WIND       PRES   REMARKS
MOBILE         MOCLDY    43  35  73 N14       30.34R
BROOKLEY FIELD PTCLDY    45  37  73 N14       30.34R
EVERGREEN      CLEAR     41  33  73 N7        30.33R
$$

ALZ049-050-065>069-301400-
SOUTHEAST ALABAMA

CITY           SKY/WX    TMP DP  RH WIND       PRES   REMARKS
DOTHAN         PTCLDY    45  36  70 N10       30.30R
OZARK          PTCLDY    45  36  71 NW8       30.28R
TROY           PTCLDY    42  31  64 N9        30.32R
EUFAULA        FAIR      43  32  65 N8        30.28R
$$



USA.gov is the U.S. government's official web portal to all federal, state and local government web resources and services.